Washington County, Texas, United States
Lat: 30.22N, Lon: 96.44W
Wx Zone: TXZ197
Local Info
Past Weather Observations for Today

NOTE: This archive is for the closest National Weather Service station to Washington County. Information may differ from the station used for current weather conditions.

Click here for Long-term Archive

Time Weather Temperature Dewpoint Humidity Pressure Winds Precip Visibility
10:15
Overcast
Drizzle
59°F / 15°C 57°F / 14°C 94% 30.01 in
(1016 mb)
SE 5.8 mph
(SE 9 kph)
- 1/4SM
09:55
Overcast
Fog
57°F / 14°C 57°F / 14°C 100% 30.04 in
(1017 mb)
SE 5.8 mph
(SE 9 kph)
- M1/4SM
09:35
Overcast
Fog
55°F / 13°C 55°F / 13°C 100% 30.04 in
(1017 mb)
Calm - M1/4SM
09:15
Overcast
Fog
54°F / 12°C 54°F / 12°C 100% 30.04 in
(1017 mb)
Calm - M1/4SM
08:55
Overcast
Fog
54°F / 12°C 54°F / 12°C 100% 30.04 in
(1017 mb)
Calm - 1/4SM
08:35
Overcast
Fog
54°F / 12°C 52°F / 11°C 94% 30.04 in
(1017 mb)
Calm - 1/4SM
08:15
Overcast
Fog
52°F / 11°C 52°F / 11°C 100% 30.06 in
(1018 mb)
Calm - 1/4SM
07:55
Overcast
Fog
52°F / 11°C 50°F / 10°C 94% 30.06 in
(1018 mb)
Calm - 1/4SM
07:35
Overcast
Fog
50°F / 10°C 50°F / 10°C 100% 30.04 in
(1017 mb)
Calm - 1/4SM
07:15
Overcast
Fog
50°F / 10°C 50°F / 10°C 100% 30.04 in
(1017 mb)
Calm - 1/4SM
06:55
Overcast
Fog
50°F / 10°C 48°F / 9°C 94% 30.04 in
(1017 mb)
Calm - 1/2SM
06:35
Overcast
Fog
50°F / 10°C 48°F / 9°C 94% 30.04 in
(1017 mb)
E 3.5 mph
(E 6 kph)
- 1/2SM
06:15
Overcast
Fog
48°F / 9°C 48°F / 9°C 100% 30.04 in
(1017 mb)
Calm - 1/2SM
05:55
Overcast
Fog
48°F / 9°C 48°F / 9°C 100% 30.04 in
(1017 mb)
Calm - 1/4SM
05:35
Overcast
Fog
48°F / 9°C 48°F / 9°C 100% 30.04 in
(1017 mb)
Calm - 1/4SM
05:15
Overcast
Fog
48°F / 9°C 48°F / 9°C 100% 30.04 in
(1017 mb)
Calm - 1/2SM
04:55
Overcast
Fog
48°F / 9°C 46°F / 8°C 94% 30.04 in
(1017 mb)
Calm - 1/2SM
04:35
Overcast
Fog
48°F / 9°C 46°F / 8°C 94% 30.04 in
(1017 mb)
Calm - 1/2SM
04:15
Overcast
Fog
48°F / 9°C 46°F / 8°C 94% 30.06 in
(1018 mb)
Calm - 1/2SM
03:55
Overcast
Fog
48°F / 9°C 46°F / 8°C 94% 30.06 in
(1018 mb)
Calm 0.01 in
(0.25 mm)
1/2SM
03:35
Overcast
Fog
48°F / 9°C 46°F / 8°C 94% 30.06 in
(1018 mb)
Calm 0.01 in
(0.25 mm)
1/2SM
03:15
Overcast
Fog And Mist
48°F / 9°C 46°F / 8°C 94% 30.09 in
(1019 mb)
Calm - 3/4SM
02:55
Overcast
Fog And Mist
48°F / 9°C 46°F / 8°C 94% 30.09 in
(1019 mb)
Calm - 1SM
02:35
Overcast
Fog And Mist
46°F / 8°C 46°F / 8°C 100% 30.09 in
(1019 mb)
Calm - 1 1/4SM
02:15
Overcast
Fog And Mist
48°F / 9°C 46°F / 8°C 94% 30.12 in
(1020 mb)
Calm - 1 1/4SM
01:55
Overcast
Fog And Mist
48°F / 9°C 46°F / 8°C 94% 30.12 in
(1020 mb)
Calm - 1 1/4SM
01:35
Overcast
Fog And Mist
46°F / 8°C 46°F / 8°C 100% 30.12 in
(1020 mb)
Calm - 1 1/4SM
01:15
Overcast
Fog And Mist
48°F / 9°C 46°F / 8°C 94% 30.12 in
(1020 mb)
NNW 3.5 mph
(NNW 6 kph)
- 1 1/4SM
00:55
Overcast
Fog And Mist
48°F / 9°C 46°F / 8°C 94% 30.15 in
(1021 mb)
NW 3.5 mph
(NW 6 kph)
- 1SM
00:35
Overcast
Fog And Mist
48°F / 9°C 46°F / 8°C 94% 30.15 in
(1021 mb)
NW 3.5 mph
(NW 6 kph)
- 1SM
00:15
Overcast
Fog And Mist
48°F / 9°C 46°F / 8°C 94% 30.15 in
(1021 mb)
Calm - 3/4SM
Time Weather Temperature Dewpoint Humidity Pressure Winds Precip Visibility


Weather for websites

WeatherForYou.com, LLC is not responsible for any damages or problems caused by this service. Current weather conditions are obtained from the closest station including government and personal stations which may have varying degrees of accuracy. Weather forecasts are derived from the NOAA NDFD. Like all things, this site belongs to Jesus Christ... He just trusts me to maintain it. If you have any questions or comments email webmaster@weatherforyou.com

Copyright © 2015, WeatherForYou.com LLC. All rights reserved.